Regional Weather Roundup
Issued by NWS Kansas City/Pleasant Hill, MO

Home | Current Version | Previous Version | Graphics & Text | Print | Product List | Glossary Off
Versions: 1 2 3 4 5 6 7 8 9 10 11 12 13 14 15 16 17 18 19 20 21 22 23 24 25 26 27 28 29 30 31 32 33 34 35 36 37 38 39 40 41 42 43 44 45 46 47 48 49 50

000
ASUS43 KEAX 290511
RWREAX

WEATHER ROUNDUP FOR EASTERN KANSAS AND NORTHWEST MISSOURI
NATIONAL WEATHER SERVICE KANSAS CITY/PLEASANT HILL MO
1100 PM CST SUN DEC 28 2014

KSZ040-057-103>105-MOZ028-029-037-043-290600-
...KANSAS CITY METROPOLITAN AREA...

CITY           SKY/WX    TMP DP  RH WIND       PRES   REMARKS
K.C. INTL      CLOUDY    29  22  75 S6        30.19R WCI  23
K.C. DOWNTOWN  CLOUDY    33  21  61 SW5       30.20R WCI  29
LEES SUMMIT    PTCLDY    30  20  66 S5        30.19R WCI  25
OLATHE - IXD   MOCLDY    29  21  72 SE5       30.19R WCI  24
OLATHE - OJC   MOCLDY    28  20  71 CALM      30.18R
LAWRENCE       MOCLDY    26  22  84 CALM      30.20R

$$

MOZ001>008-011>017-020>025-030>033-038>040-044>046-053-054-290600-
...NORTHERN AND CENTRAL MISSOURI...

CITY           SKY/WX    TMP DP  RH WIND       PRES   REMARKS
ST. JOSEPH     CLOUDY    29  24  82 CALM      30.20R
MOSBY          CLOUDY    28  25  86 CALM      30.21R
WARRENSBURG    CLEAR     27  23  86 CALM      30.21R
WHITEMAN AFB   CLEAR     30  19  64 CALM      30.17S
CLINTON        CLEAR     25  21  86 CALM      30.22R
SEDALIA        CLEAR     29  18  63 SE5       30.21R WCI  24
WARSAW         NOT AVBL
MARSHALL       PTCLDY    30  21  69 SE3       30.22R
CHILLICOTHE      N/A     27  23  85 CALM      30.23R
MOBERLY        PTCLDY    25  18  74 CALM      30.21S
KIRKSVILLE     PTCLDY    24  20  84 CALM      30.21R

$$

MOZ041-047>049-056>058-063>065-088>090-097-290600-
...EASTERN AND SOUTHERN MISSOURI...

CITY           SKY/WX    TMP DP  RH WIND       PRES   REMARKS
ST. LOUIS INTL CLEAR     28  23  81 E5        30.24R WCI  23
SPIRIT OF STL  CLEAR     24  21  88 CALM      30.23S
COLUMBIA       CLEAR     30  21  69 E3        30.21R
JEFFERSON CITY CLEAR     24  21  88 CALM      30.23S
MEXICO         CLEAR    N/A N/A N/A SE3       30.22R
HANNIBAL       CLEAR     27  21  80 CALM      30.23R
ROLLA          CLEAR     27  22  81 E8        30.18S WCI  19
LEBANON        CLEAR     27  23  86 E3        30.17S
OSAGE BEACH    CLEAR     23  19  86 CALM      30.20S
SPRINGFIELD    CLEAR     25  20  81 SE3       30.16S
BRANSON        CLEAR     23  23 100 CALM      30.17S
NEVADA         CLEAR     23  21  93 E5        30.20S WCI  17
JOPLIN         CLEAR     26  22  84 E3        30.18R
WEST PLAINS    CLEAR     22  18  85 CALM      30.17F

$$

IAZ060-094-KSZ022-034>040-054-083-096-NEZ052-066-093-290600-
...KANSAS...SOUTHEAST NEBRASKA AND IOWA...

CITY           SKY/WX    TMP DP  RH WIND       PRES   REMARKS
TOPEKA         MOCLDY    31  24  75 E5        30.19R WCI  26
MANHATTAN      PTCLDY    28  20  71 CALM      30.16S
EMPORIA        PTCLDY    26  19  74 SE6       30.16R WCI  19
CHANUTE        CLEAR     22  19  89 CALM      30.18R
WICHITA        CLEAR     28  16  60 E7        30.13R WCI  21
OMAHA          MOCLDY    24  22  91 N7        30.22R WCI  16
LINCOLN        MOCLDY    25  21  85 N8        30.20R WCI  16
FALLS CITY     CLOUDY    31  23  72 SE3       30.17S
LAMONI         CLOUDY    29  21  72 CALM      30.19R
DES MOINES     CLOUDY    28  21  75 NE6       30.23R WCI  22

$$




USA.gov is the U.S. government's official web portal to all federal, state and local government web resources and services.